This is the latest recevied weather packets stored in our database for station/object WX1NWA. If no packets are shown the sender has not sent any weather packets the latest 10 day(s).
| Time | Temp. | Humidity | Pressure | Rain* | Wind** | Luminosity | Snow |
|---|---|---|---|---|---|---|---|
| 1777512406 | 13.33° C | 75% | 1018.6 hPa | 0 mm | - | 0 W/m² | - |
| 1777512103 | 13.33° C | 75% | 1018.8 hPa | 0 mm | - | 0 W/m² | - |
| 1777511801 | 13.33° C | 75% | 1018.6 hPa | 0 mm | - | 0 W/m² | - |
| 1777511497 | 13.89° C | 74% | 1018.4 hPa | 0 mm | - | 0 W/m² | - |
| 1777511195 | 13.89° C | 74% | 1018.4 hPa | 0 mm | - | 0 W/m² | - |
| 1777510890 | 13.89° C | 74% | 1018.5 hPa | 0 mm | - | 0 W/m² | - |
| 1777510587 | 13.89° C | 75% | 1018.5 hPa | 0 mm | - | 1 W/m² | - |
| 1777510283 | 13.89° C | 76% | 1018.5 hPa | 0 mm | - | 3 W/m² | - |
| 1777509980 | 13.89° C | 76% | 1018.3 hPa | 0 mm | - | 5 W/m² | - |
| 1777509676 | 13.89° C | 76% | 1018.6 hPa | 0 mm | - | 8 W/m² | - |
| 1777509373 | 13.89° C | 76% | 1018.3 hPa | 0 mm | - | 10 W/m² | - |
| 1777509070 | 13.89° C | 76% | 1018.3 hPa | 0 mm | - | 14 W/m² | - |
| 1777508767 | 13.89° C | 77% | 1018.4 hPa | 0 mm | - | 17 W/m² | - |
| 1777508464 | 13.89° C | 76% | 1018.5 hPa | 0 mm | - | 18 W/m² | - |
| 1777508161 | 13.89° C | 76% | 1018 hPa | 0 mm | - | 21 W/m² | - |
| 1777507857 | 13.89° C | 75% | 1018 hPa | 0 mm | - | 22 W/m² | - |
| 1777507555 | 14.44° C | 76% | 1018.3 hPa | 0 mm | - | 26 W/m² | - |
| 1777507251 | 14.44° C | 75% | 1018.1 hPa | 0 mm | - | 28 W/m² | - |
| 1777506949 | 14.44° C | 75% | 1017.9 hPa | 0 mm | - | 31 W/m² | - |
| 1777506646 | 14.44° C | 74% | 1018.2 hPa | 0 mm | - | 37 W/m² | - |
| 1777506343 | 15° C | 74% | 1018.3 hPa | 0 mm | - | 38 W/m² | - |
| 1777506038 | 15° C | 72% | 1018.2 hPa | 0 mm | - | 40 W/m² | - |
| 1777505734 | 15° C | 72% | 1018.2 hPa | 0 mm | - | 54 W/m² | - |
| 1777505432 | 15° C | 72% | 1018.1 hPa | 0 mm | - | 56 W/m² | - |
| 1777505128 | 15° C | 72% | 1018.1 hPa | 0 mm | - | 79 W/m² | - |
* Rain latest hour (hover to see other rain measurements)
** Current wind speed in m/s (hover to see current wind gust speed)